Imperial, NE

3:32 AM MDT on August 28, 2016 (GMT -0600)
Imperial Municipal

Weather History for KIML - April, 2014

Change the Weather History Date:

Monday, April 28, 2014

  Actual Average Record
Temperature  
Mean Temperature 43 °F 53 °F  
Max Temperature 48 °F 66 °F 94 °F (1910)
Min Temperature 38 °F 39 °F 25 °F (1984)
Degree Days  
Heating Degree Days 22 12  
Month to date heating degree days 397 474  
Cooling Degree Days 0 0  
Month to date cooling degree days 1 0  
Year to date cooling degree days 1 0  
Moisture  
Dew Point 35 °F    
Average Humidity 73    
Maximum Humidity 85    
Minimum Humidity 60    
Precipitation  
Precipitation 0.11 in 0.07 in 2.60 in (1896)
Sea Level Pressure  
Sea Level Pressure 29.59 in    
Wind  
Wind Speed 30 mph (NNW)    
Max Wind Speed 43 mph    
Max Gust Speed 57 mph    
Visibility 10 miles    
Events Rain    
T = Trace of Precipitation, MM = Missing Value Source: NWS Daily Summary

Daily Weather History Graph

Daily Weather History Graph

Search for Another Location

Airport or City:

Trip Planner

Search our weather history database for the weather conditions in past years. The results will help you decide how hot, cold, wet, or windy it might be!

Date:

Astronomy

Apr. 28, 2014 Rise Set
Actual Time 5:49 AM MDT 7:39 PM MDT
Civil Twilight 5:20 AM MDT 8:08 PM MDT
Nautical Twilight 4:44 AM MDT 8:44 PM MDT
Astronomical Twilight 4:06 AM MDT 9:22 PM MDT
Moon 5:29 AM MDT 7:19 PM MDT
Length of Visible Light 14h 48m
Length of Day
13h 49m
Waning Crescent, 0% of the Moon is Illuminated
Apr 28
Waning Crescent
Apr 29
New
May 6
First Quarter
May 14
Full
May 21
Last Quarter

Hourly Weather History & Observations

Time (MDT) Temp. Windchill Dew Point Humidity Pressure Visibility Wind Dir Wind Speed Gust Speed Precip Events Conditions
12:08 AM 37.9 °F 26.6 °F 35.1 °F 89% 29.45 in 9.0 mi NW 25.3 mph 36.8 mph 0.01 in Rain Light Rain
12:30 AM 39.0 °F 28.3 °F 35.1 °F 86% 29.44 in 10.0 mi NW 24.2 mph 34.5 mph 0.02 in Rain Light Rain
12:46 AM 39.0 °F 28.3 °F 35.1 °F 86% 29.44 in 10.0 mi NW 24.2 mph 38.0 mph 0.03 in Rain Light Rain
12:53 AM 39.2 °F 28.7 °F 35.6 °F 87% 29.45 in 10.0 mi NW 23.0 mph 31.1 mph N/A Rain Light Rain
1:53 AM 41.0 °F 30.0 °F 35.6 °F 81% 29.44 in 10.0 mi NNW 28.8 mph 39.1 mph N/A Rain Light Rain
2:53 AM 39.0 °F 27.6 °F 35.1 °F 86% 29.42 in 10.0 mi NW 27.6 mph 38.0 mph 0.00 in   Overcast
3:53 AM 39.2 °F 27.2 °F 35.6 °F 87% 29.45 in 10.0 mi NW 31.1 mph 41.4 mph N/A Rain Light Rain
4:53 AM 37.9 °F 25.1 °F 34.0 °F 86% 29.46 in 9.0 mi NW 33.4 mph 48.3 mph 0.02 in Rain Light Rain
5:01 AM 39.0 °F 27.0 °F 34.0 °F 82% 29.45 in 10.0 mi NW 31.1 mph 51.8 mph 0.00 in Rain Light Rain
5:53 AM 39.9 °F 28.4 °F 34.0 °F 79% 29.47 in 10.0 mi NW 29.9 mph 47.2 mph 0.00 in   Overcast
6:53 AM 42.1 °F 31.1 °F 34.0 °F 73% 29.49 in 10.0 mi NW 31.1 mph 48.3 mph 0.00 in Rain Light Rain
7:53 AM 42.1 °F 31.9 °F 35.1 °F 76% 29.51 in 10.0 mi NW 26.5 mph 36.8 mph 0.01 in Rain Light Rain
8:53 AM 45.0 °F 35.2 °F 34.0 °F 65% 29.53 in 10.0 mi NW 29.9 mph 40.3 mph 0.00 in   Overcast
9:53 AM 46.9 °F - 33.1 °F 59% 29.53 in 10.0 mi NNW 36.8 mph 46.0 mph N/A   Overcast
10:53 AM 46.9 °F - 33.1 °F 59% 29.55 in 10.0 mi NNW 32.2 mph 44.9 mph N/A   Overcast
11:53 AM 45.0 °F 35.2 °F 34.0 °F 65% 29.58 in 10.0 mi NW 29.9 mph 43.7 mph 0.00 in Rain Light Rain
12:53 PM 44.1 °F 34.0 °F 37.0 °F 76% 29.60 in 10.0 mi NNW 29.9 mph 42.6 mph 0.01 in Rain Light Rain
1:53 PM 44.1 °F 34.0 °F 37.9 °F 79% 29.61 in 10.0 mi NNW 29.9 mph 39.1 mph 0.02 in Rain Light Rain
2:53 PM 46.9 °F - 37.9 °F 71% 29.62 in 10.0 mi NNW 35.7 mph 48.3 mph 0.00 in   Mostly Cloudy
3:53 PM 46.9 °F - 37.0 °F 68% 29.64 in 10.0 mi NNW 39.1 mph 54.1 mph N/A   Mostly Cloudy
4:53 PM 46.9 °F - 36.0 °F 66% 29.67 in 10.0 mi NNW 31.1 mph 47.2 mph N/A   Mostly Cloudy
5:53 PM 45.0 °F 36.2 °F 37.0 °F 74% 29.70 in 10.0 mi NNW 24.2 mph 40.3 mph 0.00 in Rain Light Rain
6:53 PM 46.0 °F 36.5 °F 35.1 °F 66% 29.71 in 10.0 mi NNW 31.1 mph 44.9 mph 0.00 in   Overcast
7:53 PM 44.1 °F 34.6 °F 35.1 °F 71% 29.75 in 10.0 mi NNW 26.5 mph 41.4 mph 0.00 in Rain Light Rain
8:53 PM 42.8 °F 33.1 °F 35.6 °F 76% 29.75 in 10.0 mi NNW 25.3 mph 35.7 mph N/A   Overcast
9:53 PM 43.0 °F 32.7 °F 36.0 °F 76% 29.78 in 10.0 mi NNW 28.8 mph 35.7 mph 0.00 in Rain Light Rain
10:22 PM 42.1 °F 33.3 °F 36.0 °F 79% 29.77 in 10.0 mi NNW 19.6 mph 32.2 mph 0.00 in Rain Light Rain
10:53 PM 41.0 °F 30.9 °F 36.0 °F 82% 29.80 in 10.0 mi NNW 24.2 mph - 0.01 in Rain Light Rain
11:51 PM 39.2 °F 28.0 °F 35.6 °F 87% 29.80 in 10.0 mi NNW 26.5 mph 34.5 mph 0.01 in Rain Light Rain
11:53 PM 39.9 °F 29.0 °F 35.1 °F 83% 29.82 in 10.0 mi NNW 26.5 mph 34.5 mph 0.01 in Rain Light Rain